[[{"header":{"parameterUnit":"m.s-1","parameterCategory":1,"la1":30.2991,"la2":30.254,"lo1":-89.0895,"lo2":-89.0444,"dy":0.0017,"dx":0.0017,"nx":28,"ny":28,"refTime":"2024-08-04T21:00:00:Z","depth":0,"parameterNumber":2,"parameterNumberName":"U-component_of_WINDS"},"data":[0,0,0,0,0,0,0,0,0,0,0,0,0,0,0,0,0,0,0,0,0,0,0,0,0,0,0,0,0,0,0,0,0,0,0,0,0,0,0,0,0,0,0,0,0,0,0,0,0,0,0,0,0,0,0,0,0,0,1.0541,1.0542,0,1.0621,1.0622,1.0623,1.0666,1.0666,1.0666,1.0666,1.0747,1.0749,1.0752,0,0,0,0,0,0,0,0,0,0,0,0,0,1.0426,1.0428,1.0541,1.0542,1.0543,1.0621,1.0622,1.0623,1.0666,1.0666,1.0666,1.0666,1.0747,1.0749,1.0752,0,0,0,0,0,0,0,0,0,0,0,0,0,1.0488,1.0428,1.0541,1.0574,1.0578,1.0621,1.0622,1.0624,1.0666,1.0666,1.0666,1.0666,1.0746,1.0749,1.0752,1.0768,0,0,1.0762,1.0763,0,0,0,0,0,0,0,0,1.0484,1.0492,1.0568,1.0572,1.0576,1.0634,1.0611,1.0672,1.0666,1.0632,1.0666,1.0666,1.071,1.0716,1.073,1.0772,1.0776,1.0762,1.0764,1.0765,1.0766,0,0,0,0,0,0,0,1.048,1.0489,1.0573,1.0569,1.0574,1.0585,1.0594,1.0623,1.0669,1.0635,1.0639,1.0648,1.0712,1.0727,1.0732,1.0777,1.0762,1.0765,1.0766,1.0768,1.0836,1.0836,0,0,0,0,0,0,1.047,1.0485,1.057,1.0575,1.053,1.0587,1.0597,1.0615,1.0669,1.0677,1.0647,1.0649,1.0722,1.0729,1.0735,1.0758,1.0765,1.0768,1.077,1.0837,1.0836,1.0836,0,0,0,0,0,0,1.0468,1.0478,1.0567,1.0531,1.0543,1.0589,1.0609,1.0617,1.0632,1.0678,1.0686,1.0655,1.0722,1.0731,1.076,1.0762,1.0769,1.0772,1.0837,1.0837,1.0836,1.0804,0,0,0,0,0,0,1.0464,1.0476,1.0483,1.0531,1.0545,1.059,1.0609,1.0618,1.0637,1.0641,1.0687,1.0695,1.0723,1.0755,1.0763,1.0766,1.0775,1.0837,1.0837,1.0836,1.0805,1.0802,1.0801,0,0,0,0,0,1.046,1.0471,1.0483,1.0493,1.0554,1.059,1.0598,1.063,1.0637,1.0644,1.0674,1.0693,1.076,1.0758,1.0767,1.0771,1.0837,1.0837,1.0836,1.0806,1.0803,1.0801,0,0,0,0,0,0,1.0422,1.0477,1.0492,1.0519,1.0549,1.0597,1.0607,1.0626,1.0656,1.0658,1.0696,1.0706,1.0731,1.0754,1.075,1.079,1.08,1.0802,1.0774,1.0772,1.077,1.0763,1.0777,0,0,0,0,0,1.0416,1.0441,1.0488,1.0507,1.0522,1.0562,1.0579,1.0601,1.0634,1.0647,1.0679,1.0711,1.0739,1.0757,1.0785,1.0808,1.0819,1.0816,1.0814,1.0812,1.0813,1.0827,1.0826,1.0836,1.0836,1.0836,0,0,1.0405,1.0439,1.0452,1.05,1.0527,1.0551,1.0572,1.0597,1.0616,1.0651,1.068,1.0705,1.0743,1.0769,1.0782,1.0788,1.0812,1.0812,1.081,1.0812,1.0827,1.0826,1.0825,1.0836,1.0836,1.0836,0,0,1.0398,1.0426,1.0445,1.0471,1.0511,1.0537,1.0542,1.0587,1.0605,1.0635,1.0661,1.0684,1.0732,1.0758,1.0777,1.078,1.0799,1.0788,1.0777,1.079,1.0789,1.0789,1.079,1.0789,1.0789,1.0789,1.0789,0,1.0379,1.0418,1.0452,1.0475,1.0496,1.0529,1.0548,1.0572,1.0619,1.0632,1.0639,1.0699,1.0727,1.076,1.076,1.0775,1.0781,1.0783,1.0786,1.0786,1.0786,1.0788,1.0788,1.0787,1.0787,1.0787,1.0788,0,1.0393,1.0419,1.0429,1.0474,1.0495,1.0516,1.0554,1.0571,1.0592,1.0617,1.0647,1.0682,1.0718,1.0728,1.0748,1.0763,1.0766,1.0779,1.0791,1.0783,1.0785,1.0786,1.0785,1.0785,1.0786,1.0786,0,0,1.0363,1.0427,1.043,1.0451,1.0497,1.0518,1.054,1.0576,1.059,1.0622,1.0642,1.0681,1.0694,1.0716,1.0739,1.0751,1.075,1.0762,1.0764,1.0759,1.077,1.076,1.076,1.0763,1.0764,1.0764,1.0767,0,1.0362,1.0405,1.0436,1.0466,1.0491,1.0523,1.0543,1.0573,1.0598,1.0622,1.065,1.0677,1.0692,1.0705,1.0718,1.0748,1.0753,1.0748,1.0782,1.0783,1.0772,1.0761,1.075,1.0751,1.0768,1.0768,1.0768,0,1.0367,1.0397,1.043,1.0474,1.0485,1.0503,1.0538,1.056,1.0596,1.0613,1.0638,1.0662,1.0687,1.0696,1.0732,1.0728,1.0744,1.076,1.0761,1.0766,1.0775,1.0765,1.0752,1.0752,1.077,1.0769,1.0769,0,1.0342,1.0391,1.0417,1.0434,1.0486,1.0497,1.0519,1.0555,1.0574,1.0605,1.0618,1.0651,1.0669,1.0694,1.0726,1.073,1.0759,1.0771,1.0774,1.0773,1.0778,1.0777,1.0768,1.0789,1.0789,1.0789,1.0789,0,1.0338,1.0356,1.0406,1.0422,1.0444,1.048,1.0501,1.0526,1.0557,1.0579,1.0608,1.0628,1.0669,1.0694,1.0719,1.0745,1.0753,1.0768,1.0774,1.0765,1.0763,1.0776,1.0776,1.0789,1.0789,1.0789,1.0789,0,1.0313,1.0348,1.0378,1.0425,1.0437,1.0451,1.0491,1.0508,1.0534,1.0561,1.0569,1.0611,1.0641,1.0676,1.0718,1.0735,1.0759,1.0769,1.0747,1.075,1.0751,1.0751,1.075,1.0751,1.0771,1.0771,1.077,0,1.0308,1.0323,1.0372,1.0388,1.041,1.0436,1.0455,1.0492,1.0511,1.0553,1.0564,1.0597,1.0625,1.0672,1.0706,1.0738,1.0749,1.0746,1.0754,1.0744,1.0749,1.0747,1.0749,1.0744,1.0744,1.0743,1.0743,0,1.0295,1.0312,1.0339,1.0372,1.0395,1.0423,1.0453,1.0464,1.0507,1.0527,1.0558,1.058,1.0623,1.0655,1.0692,1.0715,1.0736,1.0741,1.0743,1.0733,1.072,1.0727,1.0741,1.074,1.0741,1.0741,1.0741,1.0741,1.028,1.0295,1.0332,1.0361,1.0387,1.0414,1.0432,1.0461,1.0488,1.0525,1.0545,1.0576,1.0612,1.0663,1.0685,1.071,1.0717,1.0721,1.0722,1.0722,1.0719,1.0716,1.0717,1.0717,1.0717,1.0717,1.0717,0,1.0269,1.0294,1.0321,1.0361,1.0384,1.0402,1.0436,1.0454,1.0481,1.0512,1.0539,1.0575,1.0607,1.0643,1.0677,1.069,1.0701,1.0698,1.0697,1.0702,1.0711,1.0705,1.0688,1.0688,1.0688,1.0688,1.0688,1.0688,1.0266,1.0292,1.0312,1.0352,1.0377,1.0407,1.0425,1.045,1.0475,1.0514,1.054,1.0564,1.0597,1.0634,1.0663,1.0673,1.0684,1.0678,1.0691,1.0699,1.0701,1.0704,1.0699,1.068,1.068,1.068,1.068,1.068]},{"header":{"parameterUnit":"m.s-1","parameterCategory":1,"la1":30.2991,"la2":30.254,"lo1":-89.0895,"lo2":-89.0444,"dy":0.0017,"dx":0.0017,"nx":28,"ny":28,"refTime":"2024-08-04T21:00:00:Z","depth":0,"parameterNumber":3,"parameterNumberName":"V-component_of_WINDS"},"data":[0,0,0,0,0,0,0,0,0,0,0,0,0,0,0,0,0,0,0,0,0,0,0,0,0,0,0,0,0,0,0,0,0,0,0,0,0,0,0,0,0,0,0,0,0,0,0,0,0,0,0,0,0,0,0,0,0,0,0.0369,0.0369,0,0.0375,0.0375,0.0375,0.0352,0.0351,0.035,0.035,0.0355,0.0356,0.0356,0,0,0,0,0,0,0,0,0,0,0,0,0,0.0336,0.0337,0.0369,0.0369,0.0369,0.0375,0.0375,0.0375,0.0352,0.0351,0.035,0.0349,0.0355,0.0356,0.0357,0,0,0,0,0,0,0,0,0,0,0,0,0,0.0347,0.0337,0.0369,0.0358,0.0357,0.0375,0.0375,0.0375,0.0352,0.0351,0.035,0.0349,0.0354,0.0356,0.0357,0.0384,0,0,0.036,0.0361,0,0,0,0,0,0,0,0,0.0346,0.0348,0.036,0.0359,0.0358,0.0361,0.0365,0.0378,0.0352,0.0354,0.035,0.0348,0.0358,0.0359,0.0362,0.0385,0.0385,0.036,0.0361,0.0362,0.0362,0,0,0,0,0,0,0,0.0346,0.0348,0.0371,0.036,0.0359,0.0353,0.0353,0.0368,0.0362,0.0354,0.0352,0.0353,0.0357,0.0361,0.0362,0.0385,0.036,0.0361,0.0362,0.0363,0.043,0.0431,0,0,0,0,0,0,0.0346,0.0347,0.0371,0.0371,0.035,0.0354,0.0354,0.0361,0.0361,0.036,0.0354,0.0352,0.0359,0.0361,0.0362,0.0394,0.0362,0.0363,0.0363,0.0429,0.0431,0.0432,0,0,0,0,0,0,0.0346,0.0349,0.0371,0.0359,0.0361,0.0356,0.0364,0.0362,0.0366,0.0362,0.036,0.0359,0.0359,0.036,0.0379,0.0394,0.0363,0.0364,0.0428,0.043,0.0431,0.0459,0,0,0,0,0,0,0.0345,0.0349,0.036,0.0359,0.0362,0.0388,0.0364,0.0363,0.0368,0.0365,0.0366,0.0365,0.0358,0.0377,0.038,0.0395,0.0365,0.0426,0.0429,0.0431,0.0457,0.0462,0.0466,0,0,0,0,0,0.0344,0.0367,0.036,0.0363,0.0375,0.0389,0.039,0.0382,0.0369,0.038,0.0377,0.0365,0.0392,0.038,0.0382,0.0398,0.0425,0.0428,0.043,0.0455,0.0461,0.0466,0,0,0,0,0,0,0.0369,0.0367,0.0359,0.0383,0.0386,0.0385,0.0398,0.0388,0.0395,0.0392,0.0382,0.0382,0.0402,0.0402,0.0388,0.0425,0.0407,0.041,0.0424,0.043,0.0434,0.0433,0.0366,0,0,0,0,0,0.0378,0.0389,0.0386,0.0408,0.041,0.0404,0.0409,0.0403,0.0405,0.0407,0.0405,0.0408,0.0417,0.0423,0.0432,0.0457,0.0456,0.0469,0.0473,0.0477,0.048,0.0493,0.0498,0.044,0.044,0.044,0,0,0.0395,0.0395,0.0403,0.0413,0.0414,0.0426,0.0405,0.0418,0.0427,0.0408,0.0426,0.0425,0.0427,0.0449,0.0459,0.045,0.0496,0.048,0.0483,0.0484,0.0496,0.0501,0.0506,0.0441,0.0441,0.0441,0,0,0.0433,0.0434,0.0452,0.0454,0.0457,0.0453,0.0457,0.0457,0.0456,0.0473,0.0459,0.0469,0.0485,0.0487,0.049,0.0528,0.0517,0.0531,0.0554,0.0567,0.0571,0.0575,0.0589,0.0594,0.0534,0.0534,0.0534,0,0.0454,0.0471,0.0462,0.0476,0.0481,0.0465,0.0482,0.0485,0.049,0.0493,0.0483,0.0503,0.0503,0.0525,0.0534,0.0538,0.0542,0.0531,0.0572,0.0575,0.0579,0.0591,0.0597,0.0536,0.0536,0.0536,0.0535,0,0.0497,0.0509,0.0523,0.0529,0.0535,0.055,0.0543,0.055,0.0543,0.054,0.0557,0.0558,0.0565,0.057,0.0563,0.0591,0.0585,0.0573,0.0555,0.0586,0.0598,0.0603,0.0538,0.0538,0.0537,0.0537,0,0,0.0551,0.0551,0.0556,0.0558,0.056,0.0569,0.0584,0.0592,0.0598,0.0602,0.0614,0.0628,0.0617,0.062,0.0613,0.0625,0.0654,0.0611,0.0611,0.0619,0.0685,0.0693,0.0699,0.0647,0.0648,0.0649,0.0684,0,0.0587,0.0613,0.0605,0.0631,0.0641,0.0626,0.0639,0.0642,0.0639,0.0647,0.0644,0.0654,0.0639,0.0641,0.0651,0.0648,0.0667,0.0646,0.0658,0.0658,0.0657,0.0705,0.0714,0.0748,0.0689,0.0689,0.069,0,0.0633,0.0639,0.0666,0.0666,0.067,0.0682,0.0688,0.0696,0.0699,0.0696,0.07,0.069,0.0705,0.0686,0.0705,0.0691,0.0695,0.0695,0.0696,0.0696,0.0676,0.0706,0.0758,0.0763,0.0697,0.0696,0.0696,0,0.0669,0.0684,0.0702,0.0704,0.0704,0.0713,0.0713,0.0714,0.0719,0.0725,0.0728,0.0735,0.0739,0.0744,0.0736,0.0724,0.0757,0.0738,0.0754,0.0754,0.0762,0.0761,0.0815,0.0765,0.0765,0.0765,0.0765,0,0.0711,0.0728,0.0718,0.0729,0.0747,0.0738,0.0756,0.0755,0.0756,0.0766,0.0753,0.0763,0.0753,0.0762,0.0756,0.0772,0.0774,0.0772,0.077,0.0773,0.0773,0.0775,0.0773,0.0766,0.0766,0.0766,0.0765,0,0.0754,0.0749,0.0767,0.0765,0.0765,0.0779,0.0777,0.0787,0.0784,0.0797,0.0799,0.0793,0.0803,0.0796,0.0805,0.0801,0.0823,0.0818,0.0822,0.0821,0.0838,0.0836,0.0894,0.0901,0.0847,0.0848,0.0848,0,0.0781,0.0794,0.0793,0.0799,0.0801,0.081,0.0815,0.0806,0.0812,0.0815,0.0825,0.0833,0.0839,0.0855,0.0852,0.0859,0.0854,0.0873,0.0855,0.0857,0.0853,0.0853,0.0854,0.0877,0.0878,0.0878,0.0879,0,0.0829,0.0825,0.0833,0.084,0.0846,0.0851,0.0855,0.086,0.0851,0.0858,0.0868,0.0873,0.0882,0.0891,0.0896,0.0896,0.0886,0.0885,0.0889,0.0892,0.0893,0.0892,0.0832,0.0883,0.0883,0.0883,0.0882,0.0882,0.0864,0.0875,0.0876,0.0885,0.0887,0.0891,0.09,0.0897,0.0905,0.0912,0.0906,0.0918,0.0919,0.0926,0.0927,0.0936,0.0927,0.0934,0.0935,0.0937,0.0939,0.0892,0.0937,0.0937,0.0936,0.0936,0.0936,0,0.0911,0.0911,0.092,0.0925,0.0932,0.0922,0.0926,0.0932,0.0942,0.0945,0.0951,0.0962,0.097,0.0967,0.0974,0.0981,0.0977,0.0983,0.0982,0.0983,0.0946,0.0941,0.0987,0.0987,0.0987,0.0987,0.0987,0.0987,0.0936,0.0953,0.095,0.0967,0.0967,0.0978,0.0981,0.0984,0.0986,0.0999,0.1005,0.1003,0.1003,0.101,0.1017,0.1016,0.1019,0.1027,0.1024,0.099,0.0985,0.098,0.0976,0.1028,0.1028,0.106,0.1061,0.1061]}]]